[[{"header":{"parameterUnit":"m.s-1","parameterCategory":2,"la1":30.2991,"la2":30.254,"lo1":-89.0895,"lo2":-89.0444,"dy":0.0017,"dx":0.0017,"nx":28,"ny":28,"refTime":"2024-12-14T03:00:00:Z","depth":"0","parameterNumber":2,"parameterNumberName":"U-component_of_CURRENTS"},"data":[0,0,0,0,0,0,0,0,0,0,0,0,0,0,0,0,0,0,0,0,0,0,0,0,0,0,0,0,0,0,0,0,0,0,0,0,0,0,0,0,0,0,0,0,0,0,0,0,0,0,0,0,0,0,0,0,0,0,-0.2601,-0.2601,0,-0.2628,-0.2628,-0.2628,-0.2599,-0.2598,-0.2597,-0.2596,-0.2549,-0.2549,-0.2548,0,0,0,0,0,0,0,0,0,0,0,0,0,-0.2519,-0.2521,-0.2601,-0.2601,-0.2602,-0.2628,-0.2628,-0.2628,-0.2599,-0.2598,-0.2597,-0.2596,-0.2549,-0.2549,-0.2548,0,0,0,0,0,0,0,0,0,0,0,0,0,-0.2548,-0.2521,-0.2601,-0.2593,-0.2593,-0.2628,-0.2628,-0.2628,-0.2599,-0.2598,-0.2597,-0.2595,-0.255,-0.2549,-0.2548,-0.2569,0,0,-0.2546,-0.2546,0,0,0,0,0,0,0,0,-0.2547,-0.2551,-0.2593,-0.2593,-0.2593,-0.2611,-0.2582,-0.2606,-0.2599,-0.2593,-0.2596,-0.2595,-0.2566,-0.2564,-0.2569,-0.2567,-0.2565,-0.2546,-0.2546,-0.2545,-0.2545,0,0,0,0,0,0,0,-0.2545,-0.255,-0.2608,-0.2594,-0.2594,-0.2586,-0.2589,-0.2586,-0.2583,-0.2594,-0.2593,-0.2601,-0.2565,-0.2569,-0.2567,-0.2564,-0.2546,-0.2546,-0.2545,-0.2545,-0.2581,-0.2583,0,0,0,0,0,0,-0.255,-0.2548,-0.2608,-0.2609,-0.257,-0.2589,-0.2592,-0.2604,-0.2584,-0.2582,-0.2602,-0.2599,-0.2571,-0.2568,-0.2565,-0.2593,-0.2545,-0.2545,-0.2544,-0.258,-0.2582,-0.2583,0,0,0,0,0,0,-0.2548,-0.2555,-0.2607,-0.2581,-0.2588,-0.2592,-0.2606,-0.2606,-0.2605,-0.2592,-0.2587,-0.2602,-0.257,-0.2566,-0.2569,-0.259,-0.2544,-0.2544,-0.2578,-0.2581,-0.2583,-0.2645,0,0,0,0,0,0,-0.2545,-0.2554,-0.2558,-0.2582,-0.2589,-0.2634,-0.2608,-0.2607,-0.2614,-0.261,-0.259,-0.2585,-0.2569,-0.2571,-0.2569,-0.2588,-0.2543,-0.2577,-0.2579,-0.2582,-0.2641,-0.2649,-0.2655,0,0,0,0,0,-0.2542,-0.2558,-0.2559,-0.2566,-0.2598,-0.2636,-0.2639,-0.2635,-0.2615,-0.2626,-0.2611,-0.2585,-0.2585,-0.2571,-0.2568,-0.2589,-0.2575,-0.2579,-0.2582,-0.2638,-0.2647,-0.2655,0,0,0,0,0,0,-0.252,-0.2558,-0.2558,-0.2583,-0.261,-0.2632,-0.2638,-0.2638,-0.2637,-0.2625,-0.2602,-0.2597,-0.2609,-0.2594,-0.2578,-0.2608,-0.2577,-0.258,-0.262,-0.2629,-0.2636,-0.264,-0.2543,0,0,0,0,0,-0.2521,-0.2541,-0.2578,-0.2594,-0.2609,-0.2623,-0.2634,-0.2639,-0.2645,-0.2642,-0.2631,-0.2621,-0.2623,-0.262,-0.2619,-0.2634,-0.2619,-0.2647,-0.2654,-0.266,-0.2663,-0.2667,-0.2675,-0.2594,-0.2594,-0.2593,0,0,-0.2514,-0.2538,-0.2547,-0.259,-0.2605,-0.2641,-0.2625,-0.265,-0.2675,-0.2638,-0.2654,-0.2644,-0.2633,-0.2653,-0.2657,-0.264,-0.2676,-0.2664,-0.2669,-0.2669,-0.2671,-0.2679,-0.2686,-0.2596,-0.2595,-0.2595,0,0,-0.252,-0.2536,-0.2559,-0.2591,-0.2628,-0.2647,-0.2656,-0.2686,-0.2691,-0.2715,-0.2695,-0.2701,-0.27,-0.2705,-0.2704,-0.2751,-0.2715,-0.2747,-0.2786,-0.279,-0.2796,-0.2802,-0.2795,-0.2799,-0.275,-0.275,-0.275,0,-0.2508,-0.2547,-0.257,-0.2609,-0.2635,-0.2652,-0.2689,-0.271,-0.2734,-0.2745,-0.2726,-0.2742,-0.2729,-0.2759,-0.2774,-0.2768,-0.2756,-0.2752,-0.2799,-0.2804,-0.2808,-0.28,-0.2803,-0.2754,-0.2753,-0.2753,-0.2753,0,-0.2539,-0.2573,-0.2591,-0.2646,-0.2679,-0.2714,-0.2756,-0.2781,-0.2785,-0.2801,-0.2828,-0.282,-0.2825,-0.283,-0.2813,-0.2847,-0.2823,-0.2807,-0.2774,-0.282,-0.2808,-0.2811,-0.2759,-0.2757,-0.2756,-0.2755,0,0,-0.2498,-0.2595,-0.2598,-0.2632,-0.2703,-0.2731,-0.2786,-0.2839,-0.2864,-0.2884,-0.2911,-0.2926,-0.2912,-0.2911,-0.2897,-0.2904,-0.2925,-0.2869,-0.2867,-0.2858,-0.2924,-0.2856,-0.2853,-0.2912,-0.2913,-0.2913,-0.2903,0,-0.251,-0.2584,-0.2634,-0.2698,-0.2738,-0.2788,-0.2838,-0.2886,-0.2913,-0.2944,-0.2952,-0.2967,-0.2947,-0.2943,-0.2952,-0.293,-0.2935,-0.2928,-0.2884,-0.2883,-0.2814,-0.2855,-0.2751,-0.2729,-0.2906,-0.2906,-0.2907,0,-0.2516,-0.2568,-0.2636,-0.2728,-0.2749,-0.2788,-0.2861,-0.291,-0.297,-0.299,-0.3016,-0.3015,-0.3036,-0.3003,-0.3002,-0.2995,-0.2965,-0.2948,-0.2947,-0.2862,-0.2821,-0.2712,-0.2727,-0.2711,-0.2911,-0.291,-0.291,0,-0.2462,-0.2564,-0.2614,-0.2647,-0.2755,-0.2786,-0.2835,-0.2909,-0.2952,-0.3008,-0.3033,-0.306,-0.3061,-0.3047,-0.3013,-0.3005,-0.2999,-0.2981,-0.2898,-0.2893,-0.2785,-0.2768,-0.2774,-0.298,-0.298,-0.298,-0.298,0,-0.2451,-0.2487,-0.2588,-0.2614,-0.2665,-0.275,-0.2805,-0.2861,-0.2941,-0.2981,-0.3036,-0.3062,-0.307,-0.3068,-0.3032,-0.2973,-0.3014,-0.2911,-0.289,-0.2804,-0.279,-0.2753,-0.2765,-0.298,-0.298,-0.298,-0.298,0,-0.2378,-0.2454,-0.2508,-0.2612,-0.264,-0.2666,-0.2775,-0.2813,-0.2905,-0.2958,-0.2975,-0.306,-0.3058,-0.3058,-0.3033,-0.2985,-0.2889,-0.2908,-0.2802,-0.2768,-0.2661,-0.2679,-0.2636,-0.2561,-0.2814,-0.2812,-0.2811,0,-0.2349,-0.237,-0.2469,-0.249,-0.253,-0.2593,-0.2634,-0.276,-0.2806,-0.2944,-0.2953,-0.3005,-0.3006,-0.297,-0.2908,-0.2843,-0.2823,-0.2704,-0.2671,-0.2647,-0.2653,-0.2653,-0.2593,-0.2557,-0.2553,-0.2551,-0.2548,0,-0.2271,-0.2302,-0.234,-0.2387,-0.2427,-0.2487,-0.2556,-0.26,-0.2741,-0.28,-0.2868,-0.2889,-0.2891,-0.2799,-0.2737,-0.2675,-0.2635,-0.2644,-0.2649,-0.2479,-0.245,-0.2368,-0.2575,-0.2524,-0.2526,-0.2528,-0.2529,-0.253,-0.2183,-0.2184,-0.2229,-0.2259,-0.2306,-0.2346,-0.2348,-0.2446,-0.2507,-0.2573,-0.2694,-0.2706,-0.2691,-0.2594,-0.254,-0.2421,-0.2458,-0.2345,-0.2378,-0.2388,-0.229,-0.2439,-0.2344,-0.2346,-0.2347,-0.2348,-0.2349,0,-0.2065,-0.2077,-0.2099,-0.213,-0.212,-0.2197,-0.226,-0.2241,-0.2255,-0.2372,-0.2411,-0.2468,-0.2379,-0.2378,-0.229,-0.2193,-0.2129,-0.214,-0.2128,-0.2083,-0.2233,-0.2196,-0.2028,-0.2028,-0.2028,-0.2028,-0.2028,-0.2028,-0.2003,-0.1973,-0.1989,-0.1927,-0.1942,-0.1886,-0.1889,-0.1887,-0.1937,-0.1982,-0.2072,-0.2197,-0.222,-0.2338,-0.2212,-0.2102,-0.2041,-0.1974,-0.1995,-0.2129,-0.2152,-0.2173,-0.2141,-0.1964,-0.1964,-0.1765,-0.1764,-0.1763]},{"header":{"parameterUnit":"m.s-1","parameterCategory":2,"la1":30.2991,"la2":30.254,"lo1":-89.0895,"lo2":-89.0444,"dy":0.0017,"dx":0.0017,"nx":28,"ny":28,"refTime":"2024-12-14T03:00:00:Z","depth":"0","parameterNumber":3,"parameterNumberName":"V-component_of_CURRENTS"},"data":[0,0,0,0,0,0,0,0,0,0,0,0,0,0,0,0,0,0,0,0,0,0,0,0,0,0,0,0,0,0,0,0,0,0,0,0,0,0,0,0,0,0,0,0,0,0,0,0,0,0,0,0,0,0,0,0,0,0,-0.0244,-0.0243,0,-0.0153,-0.0152,-0.0151,-0.0088,-0.0088,-0.0087,-0.0087,0.0031,0.0033,0.0036,0,0,0,0,0,0,0,0,0,0,0,0,0,-0.0304,-0.0303,-0.0244,-0.0243,-0.0242,-0.0153,-0.0152,-0.0151,-0.0088,-0.0088,-0.0087,-0.0087,0.003,0.0033,0.0036,0,0,0,0,0,0,0,0,0,0,0,0,0,-0.0251,-0.0303,-0.0244,-0.0201,-0.0196,-0.0154,-0.0152,-0.015,-0.0088,-0.0087,-0.0087,-0.0087,0.0029,0.0033,0.0037,0.0053,0,0,0.005,0.0052,0,0,0,0,0,0,0,0,-0.0254,-0.0248,-0.0208,-0.0204,-0.0199,-0.0133,-0.013,-0.0082,-0.0088,-0.0128,-0.0087,-0.0086,-0.0023,-0.0014,0.0003,0.0058,0.0063,0.005,0.0053,0.0055,0.0056,0,0,0,0,0,0,0,-0.0258,-0.0251,-0.0206,-0.0207,-0.0201,-0.0166,-0.0158,-0.012,-0.0077,-0.0124,-0.012,-0.0112,-0.002,-0.0001,0.0007,0.0065,0.005,0.0054,0.0056,0.0058,0.0156,0.0156,0,0,0,0,0,0,-0.0275,-0.0255,-0.0209,-0.0204,-0.0227,-0.0166,-0.0157,-0.0153,-0.0078,-0.0067,-0.0113,-0.011,-0.0008,0.0002,0.0011,0.0039,0.0055,0.0059,0.0061,0.0155,0.0156,0.0156,0,0,0,0,0,0,-0.0277,-0.0272,-0.0213,-0.0228,-0.0219,-0.0166,-0.0162,-0.0152,-0.0133,-0.007,-0.0058,-0.0105,-0.0008,0.0005,0.0045,0.0044,0.006,0.0064,0.0155,0.0156,0.0156,0.0093,0,0,0,0,0,0,-0.0279,-0.0274,-0.0279,-0.023,-0.0218,-0.0198,-0.0162,-0.015,-0.013,-0.0125,-0.0059,-0.0048,-0.0006,0.0039,0.0049,0.005,0.0068,0.0155,0.0155,0.0156,0.0095,0.0091,0.0087,0,0,0,0,0,-0.0282,-0.0296,-0.0279,-0.0274,-0.0227,-0.0199,-0.019,-0.0149,-0.013,-0.0129,-0.0079,-0.005,0.0047,0.0042,0.0055,0.0057,0.0155,0.0155,0.0156,0.0097,0.0092,0.0087,0,0,0,0,0,0,-0.0325,-0.029,-0.0271,-0.0273,-0.0242,-0.0189,-0.0185,-0.0156,-0.0115,-0.011,-0.0048,-0.0033,0.0001,0.0037,0.003,0.0086,0.0106,0.0108,0.0057,0.0052,0.0049,0.0032,0.0071,0,0,0,0,0,-0.0338,-0.0339,-0.0296,-0.0298,-0.0286,-0.0236,-0.022,-0.0193,-0.015,-0.0132,-0.0085,-0.0033,0.0012,0.0037,0.0079,0.0108,0.0151,0.0118,0.0115,0.0111,0.0106,0.0172,0.0173,0.0156,0.0156,0.0156,0,0,-0.0356,-0.0337,-0.0336,-0.0307,-0.0279,-0.0272,-0.0225,-0.0209,-0.0196,-0.0126,-0.0097,-0.0047,0.0016,0.0051,0.007,0.0081,0.0138,0.0111,0.0108,0.0105,0.0172,0.0174,0.0175,0.0156,0.0156,0.0156,0,0,-0.0397,-0.0375,-0.039,-0.037,-0.0337,-0.0303,-0.0303,-0.0253,-0.0225,-0.0192,-0.0135,-0.0086,-0.0024,0.0028,0.0061,0.0061,0.0114,0.0072,0.0043,0.0106,0.0108,0.011,0.0163,0.017,0.0072,0.0072,0.0072,0,-0.0421,-0.0431,-0.0391,-0.0398,-0.0387,-0.0324,-0.0335,-0.0296,-0.0238,-0.0212,-0.0194,-0.0084,-0.0033,0.0026,0.0027,0.0053,0.0092,0.0053,0.01,0.0103,0.0107,0.0161,0.017,0.0069,0.0069,0.0069,0.007,0,-0.047,-0.0477,-0.0485,-0.0471,-0.0453,-0.0452,-0.0397,-0.0369,-0.0327,-0.028,-0.0217,-0.0138,-0.0072,-0.0047,-0.001,0.0041,0.0061,0.0085,0.0108,0.0104,0.0162,0.0172,0.0065,0.0066,0.0066,0.0067,0,0,-0.0526,-0.0523,-0.0524,-0.0534,-0.0493,-0.0485,-0.0458,-0.0412,-0.039,-0.0321,-0.0281,-0.0195,-0.0144,-0.0103,-0.0041,0.0016,0.0074,0.0051,0.0056,0.0097,0.0207,0.0256,0.0272,0.0104,0.0106,0.0107,0.0236,0,-0.0577,-0.062,-0.0592,-0.0618,-0.0634,-0.0568,-0.0548,-0.0494,-0.0432,-0.0377,-0.0275,-0.0217,-0.0166,-0.0132,-0.0067,0.0042,0.0099,0.0036,0.0211,0.0216,0.0254,0.0286,0.0321,0.0442,0.0247,0.0249,0.025,0,-0.0632,-0.0654,-0.0699,-0.0696,-0.0694,-0.0691,-0.0642,-0.0615,-0.0513,-0.0463,-0.0377,-0.0292,-0.0188,-0.015,0.003,-0.0013,0.0084,0.0168,0.0175,0.025,0.0285,0.0417,0.0469,0.0645,0.0267,0.0265,0.0264,0,-0.07,-0.0723,-0.0765,-0.0765,-0.0749,-0.0746,-0.0725,-0.0644,-0.0618,-0.0511,-0.0472,-0.0336,-0.0259,-0.0122,0.0056,0.0043,0.0256,0.0264,0.0401,0.0405,0.0485,0.0494,0.0724,0.0384,0.0384,0.0383,0.0383,0,-0.0766,-0.0796,-0.0803,-0.0827,-0.0862,-0.0818,-0.0822,-0.0773,-0.0699,-0.0666,-0.0525,-0.0457,-0.0249,-0.0095,0.0049,0.0267,0.0257,0.0405,0.0449,0.0464,0.0469,0.0665,0.0719,0.0388,0.0387,0.0386,0.0385,0,-0.0833,-0.0838,-0.0889,-0.0896,-0.0901,-0.0924,-0.0905,-0.09,-0.0814,-0.0763,-0.0731,-0.0537,-0.0326,-0.011,0.0136,0.0266,0.0572,0.0537,0.0537,0.0578,0.0853,0.09,0.1148,0.1239,0.0703,0.0705,0.0707,0,-0.0872,-0.0908,-0.0953,-0.0989,-0.0997,-0.102,-0.1033,-0.097,-0.0953,-0.0807,-0.0783,-0.0563,-0.0389,0.0002,0.0278,0.0562,0.0681,0.0748,0.0732,0.089,0.0975,0.1004,0.1064,0.0814,0.0817,0.0819,0.082,0,-0.0941,-0.0956,-0.0998,-0.1081,-0.1118,-0.1151,-0.1155,-0.1161,-0.1068,-0.0993,-0.0845,-0.0689,-0.0284,0.008,0.0461,0.063,0.0876,0.0798,0.0977,0.1097,0.1131,0.1231,0.0696,0.0838,0.0837,0.0835,0.0834,0.0833,-0.0982,-0.1034,-0.1094,-0.1167,-0.1219,-0.1263,-0.1285,-0.1256,-0.1214,-0.1074,-0.0911,-0.0644,-0.0099,0.046,0.0662,0.1102,0.1046,0.1225,0.1273,0.1292,0.1376,0.0873,0.1052,0.1051,0.1051,0.1051,0.105,0,-0.1031,-0.109,-0.1173,-0.1256,-0.1328,-0.1328,-0.1351,-0.134,-0.1286,-0.1104,-0.0922,-0.033,0.0208,0.0701,0.1327,0.1565,0.1605,0.1683,0.1744,0.1784,0.137,0.1372,0.1611,0.1611,0.1611,0.161,0.161,0.161,-0.1058,-0.115,-0.1199,-0.1328,-0.1384,-0.1445,-0.1457,-0.1409,-0.1291,-0.0981,-0.0649,-0.0376,0.0368,0.139,0.1976,0.2028,0.2208,0.2192,0.229,0.2014,0.1975,0.1937,0.1957,0.2314,0.2315,0.2692,0.2696,0.2699]}],[{"header":{"parameterUnit":"m.s-1","parameterCategory":2,"la1":30.2991,"la2":30.254,"lo1":-89.0895,"lo2":-89.0444,"dy":0.0017,"dx":0.0017,"nx":28,"ny":28,"refTime":"2024-12-14T03:00:00:Z","depth":"2","parameterNumber":2,"parameterNumberName":"U-component_of_CURRENTS"},"data":[0,0,0,0,0,0,0,0,0,0,0,0,0,0,0,0,0,0,0,0,0,0,0,0,0,0,0,0,0,0,0,0,0,0,0,0,0,0,0,0,0,0,0,0,0,0,0,0,0,0,0,0,0,0,0,0,0,0,-0.2369,-0.2369,0,-0.2397,-0.2397,-0.2397,-0.2375,-0.2375,-0.2374,-0.2373,-0.2338,-0.2337,-0.2337,0,0,0,0,0,0,0,0,0,0,0,0,0,-0.2289,-0.229,-0.2369,-0.2369,-0.237,-0.2397,-0.2397,-0.2397,-0.2375,-0.2375,-0.2374,-0.2373,-0.2338,-0.2337,-0.2337,0,0,0,0,0,0,0,0,0,0,0,0,0,-0.2318,-0.229,-0.2368,-0.2364,-0.2364,-0.2397,-0.2397,-0.2397,-0.2376,-0.2375,-0.2374,-0.2373,-0.2338,-0.2337,-0.2337,-0.2354,0,0,-0.2335,-0.2335,0,0,0,0,0,0,0,0,-0.2316,-0.2321,-0.2364,-0.2365,-0.2365,-0.2384,-0.2356,-0.2381,-0.2376,-0.2368,-0.2373,-0.2372,-0.235,-0.2348,-0.2353,-0.2352,-0.2351,-0.2335,-0.2335,-0.2335,-0.2335,0,0,0,0,0,0,0,-0.2314,-0.2319,-0.2377,-0.2365,-0.2366,-0.2359,-0.2362,-0.236,-0.2361,-0.2369,-0.2368,-0.2376,-0.2349,-0.2353,-0.2351,-0.235,-0.2335,-0.2335,-0.2335,-0.2334,-0.2375,-0.2377,0,0,0,0,0,0,-0.2319,-0.2318,-0.2376,-0.2378,-0.2341,-0.2361,-0.2364,-0.2377,-0.2362,-0.2361,-0.2377,-0.2375,-0.2355,-0.2352,-0.235,-0.2382,-0.2335,-0.2334,-0.2334,-0.2374,-0.2375,-0.2377,0,0,0,0,0,0,-0.2317,-0.2324,-0.2375,-0.235,-0.2357,-0.2364,-0.2378,-0.2378,-0.2382,-0.237,-0.2366,-0.2381,-0.2354,-0.2351,-0.2358,-0.238,-0.2334,-0.2334,-0.2372,-0.2374,-0.2376,-0.2439,0,0,0,0,0,0,-0.2314,-0.2323,-0.2329,-0.2351,-0.2358,-0.2403,-0.2379,-0.2379,-0.239,-0.2387,-0.2372,-0.2368,-0.2353,-0.2359,-0.2357,-0.2379,-0.2333,-0.237,-0.2373,-0.2376,-0.2435,-0.2442,-0.2449,0,0,0,0,0,-0.2312,-0.2328,-0.233,-0.2336,-0.2368,-0.2404,-0.2408,-0.2407,-0.2391,-0.2403,-0.2392,-0.2368,-0.2374,-0.236,-0.2358,-0.2379,-0.2369,-0.2372,-0.2375,-0.2431,-0.2441,-0.2449,0,0,0,0,0,0,-0.2294,-0.2329,-0.233,-0.2355,-0.2382,-0.2402,-0.2411,-0.2412,-0.2414,-0.2406,-0.2385,-0.2382,-0.2397,-0.2383,-0.2367,-0.24,-0.2368,-0.2371,-0.2412,-0.242,-0.2427,-0.2431,-0.2333,0,0,0,0,0,-0.2296,-0.2315,-0.235,-0.2367,-0.2383,-0.2397,-0.2408,-0.2414,-0.2423,-0.2422,-0.2414,-0.2407,-0.241,-0.241,-0.2409,-0.2427,-0.2412,-0.244,-0.2447,-0.2453,-0.2457,-0.2461,-0.2468,-0.2387,-0.2387,-0.2387,0,0,-0.2292,-0.2314,-0.2323,-0.2365,-0.238,-0.2414,-0.24,-0.2427,-0.2452,-0.2418,-0.2439,-0.2431,-0.2421,-0.2442,-0.2448,-0.2431,-0.2471,-0.2457,-0.2463,-0.2462,-0.2465,-0.2472,-0.2479,-0.2389,-0.2389,-0.2389,0,0,-0.2301,-0.2317,-0.234,-0.237,-0.2406,-0.2424,-0.2435,-0.2464,-0.2471,-0.2498,-0.248,-0.2489,-0.2491,-0.2495,-0.2494,-0.2542,-0.2509,-0.254,-0.2579,-0.2583,-0.2589,-0.2595,-0.2591,-0.2595,-0.2543,-0.2543,-0.2543,0,-0.2293,-0.233,-0.2352,-0.2388,-0.2414,-0.2431,-0.2467,-0.2488,-0.2514,-0.2526,-0.2511,-0.253,-0.2519,-0.2549,-0.2565,-0.2559,-0.2549,-0.2545,-0.2592,-0.2597,-0.2601,-0.2596,-0.26,-0.2547,-0.2546,-0.2546,-0.2546,0,-0.2324,-0.2358,-0.2376,-0.2427,-0.2459,-0.2493,-0.2533,-0.256,-0.2567,-0.2583,-0.2613,-0.2607,-0.2614,-0.262,-0.2604,-0.2638,-0.2617,-0.26,-0.2568,-0.2613,-0.2605,-0.2608,-0.2552,-0.255,-0.2549,-0.2548,0,0,-0.2291,-0.238,-0.2384,-0.2415,-0.2483,-0.251,-0.2564,-0.2614,-0.264,-0.2664,-0.2693,-0.271,-0.2699,-0.2699,-0.2687,-0.2694,-0.2718,-0.2662,-0.266,-0.2654,-0.2721,-0.2653,-0.2649,-0.2705,-0.2706,-0.2707,-0.2704,0,-0.2305,-0.2373,-0.242,-0.2481,-0.2518,-0.2567,-0.2614,-0.2661,-0.2689,-0.2722,-0.2732,-0.275,-0.2732,-0.2732,-0.2741,-0.2721,-0.2729,-0.272,-0.2681,-0.268,-0.261,-0.2651,-0.2441,-0.2416,-0.2706,-0.2707,-0.2707,0,-0.2314,-0.2361,-0.2425,-0.251,-0.253,-0.2569,-0.264,-0.2687,-0.2747,-0.2768,-0.2797,-0.2799,-0.2821,-0.2791,-0.2793,-0.2786,-0.276,-0.2745,-0.2744,-0.2658,-0.2617,-0.2417,-0.241,-0.2712,-0.2712,-0.2711,-0.2711,0,-0.2265,-0.236,-0.2407,-0.2437,-0.2538,-0.257,-0.2617,-0.2689,-0.273,-0.2789,-0.2815,-0.2843,-0.2848,-0.2837,-0.2807,-0.2799,-0.2797,-0.2779,-0.2699,-0.2694,-0.2496,-0.2471,-0.2781,-0.2781,-0.2781,-0.2781,-0.2781,0,-0.2257,-0.2291,-0.2385,-0.241,-0.2459,-0.2539,-0.2594,-0.2648,-0.2726,-0.2764,-0.2821,-0.2845,-0.2858,-0.2858,-0.2826,-0.2771,-0.2812,-0.2712,-0.2691,-0.2512,-0.2491,-0.2729,-0.2723,-0.2781,-0.2781,-0.2781,-0.2781,0,-0.2191,-0.2261,-0.2312,-0.2409,-0.2437,-0.2463,-0.2568,-0.2603,-0.2694,-0.2745,-0.2763,-0.2844,-0.2845,-0.285,-0.2829,-0.2783,-0.2743,-0.2711,-0.2499,-0.2454,-0.2633,-0.2631,-0.2627,-0.2624,-0.2622,-0.2621,-0.2619,0,-0.2165,-0.2185,-0.2277,-0.2296,-0.2336,-0.2398,-0.2436,-0.2555,-0.2597,-0.2729,-0.2735,-0.2789,-0.2787,-0.2757,-0.2687,-0.2627,-0.2693,-0.24,-0.2351,-0.2639,-0.262,-0.262,-0.262,-0.2114,-0.2109,-0.2104,-0.2101,0,-0.2093,-0.2123,-0.2157,-0.2201,-0.2239,-0.2293,-0.2358,-0.2395,-0.2528,-0.2581,-0.2639,-0.2658,-0.2654,-0.2504,-0.2448,-0.2379,-0.2395,-0.2308,-0.2653,-0.2194,-0.2157,-0.2138,-0.2154,-0.2061,-0.2065,-0.2068,-0.207,-0.2072,-0.2012,-0.2011,-0.2052,-0.208,-0.2123,-0.2154,-0.215,-0.2235,-0.2284,-0.2324,-0.2444,-0.2398,-0.239,-0.2199,-0.21,-0.2019,-0.218,-0.2064,-0.2077,-0.2094,-0.2043,-0.2006,-0.1872,-0.1874,-0.1877,-0.1879,-0.1881,0,-0.1899,-0.191,-0.1928,-0.1952,-0.1937,-0.2014,-0.2062,-0.2025,-0.2019,-0.2089,-0.2106,-0.1905,-0.183,-0.1832,-0.1658,-0.1631,-0.1601,-0.1552,-0.1507,-0.1547,-0.1582,-0.1505,-0.1191,-0.1189,-0.1187,-0.1185,0,0,-0.184,-0.1807,-0.1818,-0.1751,-0.1764,-0.17,-0.1695,-0.1658,-0.1664,-0.1598,-0.1576,-0.1723,-0.1775,-0.148,-0.1414,-0.1278,-0.1393,-0.121,-0.1761,-0.1747,-0.178,-0.1875,-0.18,0,0,0,0,0]},{"header":{"parameterUnit":"m.s-1","parameterCategory":2,"la1":30.2991,"la2":30.254,"lo1":-89.0895,"lo2":-89.0444,"dy":0.0017,"dx":0.0017,"nx":28,"ny":28,"refTime":"2024-12-14T03:00:00:Z","depth":"2","parameterNumber":3,"parameterNumberName":"V-component_of_CURRENTS"},"data":[0,0,0,0,0,0,0,0,0,0,0,0,0,0,0,0,0,0,0,0,0,0,0,0,0,0,0,0,0,0,0,0,0,0,0,0,0,0,0,0,0,0,0,0,0,0,0,0,0,0,0,0,0,0,0,0,0,0,-0.0207,-0.0206,0,-0.012,-0.0119,-0.0118,-0.0059,-0.0059,-0.0059,-0.0059,0.0053,0.0056,0.0059,0,0,0,0,0,0,0,0,0,0,0,0,0,-0.0265,-0.0265,-0.0207,-0.0206,-0.0205,-0.0121,-0.0119,-0.0118,-0.0059,-0.0059,-0.0059,-0.0058,0.0052,0.0056,0.0059,0,0,0,0,0,0,0,0,0,0,0,0,0,-0.0214,-0.0265,-0.0207,-0.0167,-0.0162,-0.0121,-0.0119,-0.0118,-0.006,-0.0059,-0.0059,-0.0058,0.0051,0.0055,0.0059,0.0076,0,0,0.0072,0.0074,0,0,0,0,0,0,0,0,-0.0217,-0.0212,-0.0174,-0.0169,-0.0165,-0.0102,-0.0099,-0.0052,-0.006,-0.0097,-0.0059,-0.0058,0.0003,0.0011,0.0028,0.0081,0.0086,0.0072,0.0075,0.0076,0.0078,0,0,0,0,0,0,0,-0.0221,-0.0215,-0.0171,-0.0173,-0.0167,-0.0134,-0.0127,-0.0089,-0.0049,-0.0094,-0.009,-0.0083,0.0006,0.0024,0.0031,0.0088,0.0072,0.0076,0.0078,0.008,0.0174,0.0174,0,0,0,0,0,0,-0.0238,-0.0219,-0.0174,-0.0169,-0.0192,-0.0134,-0.0125,-0.0121,-0.005,-0.0039,-0.0083,-0.008,0.0017,0.0026,0.0035,0.0063,0.0076,0.008,0.0083,0.0174,0.0174,0.0174,0,0,0,0,0,0,-0.024,-0.0235,-0.0177,-0.0193,-0.0183,-0.0134,-0.0129,-0.012,-0.0102,-0.0042,-0.0031,-0.0076,0.0017,0.0029,0.0068,0.0068,0.0082,0.0086,0.0174,0.0174,0.0174,0.0116,0,0,0,0,0,0,-0.0242,-0.0236,-0.0241,-0.0194,-0.0183,-0.0162,-0.0129,-0.0118,-0.0099,-0.0094,-0.0032,-0.0021,0.0019,0.0062,0.0072,0.0073,0.0089,0.0174,0.0174,0.0174,0.0118,0.0114,0.0111,0,0,0,0,0,-0.0244,-0.0257,-0.0242,-0.0236,-0.0191,-0.0163,-0.0154,-0.0116,-0.0099,-0.0097,-0.0051,-0.0023,0.007,0.0065,0.0077,0.008,0.0174,0.0174,0.0174,0.012,0.0115,0.0111,0,0,0,0,0,0,-0.0285,-0.0251,-0.0233,-0.0235,-0.0205,-0.0154,-0.015,-0.0123,-0.0084,-0.0079,-0.0021,-0.0007,0.0027,0.006,0.0054,0.0108,0.0126,0.0129,0.008,0.0077,0.0073,0.0056,0.0092,0,0,0,0,0,-0.0298,-0.0298,-0.0256,-0.0258,-0.0246,-0.0199,-0.0184,-0.0158,-0.0117,-0.01,-0.0055,-0.0006,0.0037,0.0061,0.0101,0.013,0.017,0.014,0.0137,0.0133,0.0128,0.0189,0.0191,0.0175,0.0175,0.0175,0,0,-0.0314,-0.0296,-0.0295,-0.0266,-0.024,-0.0232,-0.0189,-0.0172,-0.016,-0.0094,-0.0066,-0.0019,0.0041,0.0076,0.0094,0.0104,0.0158,0.0134,0.013,0.0127,0.019,0.0191,0.0193,0.0175,0.0175,0.0175,0,0,-0.0352,-0.0331,-0.0345,-0.0325,-0.0294,-0.0262,-0.0261,-0.0213,-0.0187,-0.0154,-0.0102,-0.0054,0.0005,0.0054,0.0086,0.0087,0.0136,0.0097,0.007,0.0129,0.0131,0.0133,0.0181,0.0188,0.0098,0.0097,0.0097,0,-0.0375,-0.0384,-0.0344,-0.0351,-0.0341,-0.0281,-0.029,-0.0253,-0.0198,-0.0174,-0.0157,-0.0052,-0.0004,0.0053,0.0054,0.008,0.0116,0.0079,0.0124,0.0127,0.013,0.0179,0.0187,0.0095,0.0095,0.0095,0.0096,0,-0.0419,-0.0425,-0.0432,-0.0419,-0.0401,-0.04,-0.0347,-0.0321,-0.0281,-0.0237,-0.0178,-0.0103,-0.0041,-0.0015,0.002,0.0068,0.0087,0.0109,0.0131,0.0128,0.018,0.019,0.0091,0.0092,0.0093,0.0093,0,0,-0.0472,-0.0467,-0.0469,-0.0478,-0.0438,-0.0431,-0.0405,-0.0362,-0.0343,-0.0276,-0.024,-0.0156,-0.0109,-0.007,-0.001,0.0045,0.0099,0.0078,0.0082,0.0119,0.0222,0.0261,0.0276,0.0128,0.0129,0.013,0.0248,0,-0.052,-0.056,-0.0532,-0.0557,-0.0572,-0.051,-0.0491,-0.0441,-0.0383,-0.0331,-0.0234,-0.0181,-0.013,-0.0098,-0.0036,0.0067,0.0122,0.0064,0.0225,0.023,0.026,0.0288,0.0239,0.0342,0.0258,0.026,0.0261,0,-0.0571,-0.0592,-0.0635,-0.0633,-0.0631,-0.063,-0.0586,-0.056,-0.0464,-0.0417,-0.0336,-0.0256,-0.0156,-0.0118,0.0053,0.0013,0.0105,0.0185,0.0192,0.0255,0.0287,0.0334,0.0363,0.0277,0.0276,0.0275,0.0274,0,-0.0639,-0.066,-0.07,-0.07,-0.0685,-0.0684,-0.0665,-0.059,-0.0567,-0.0466,-0.0432,-0.0301,-0.023,-0.0098,0.0072,0.0062,0.026,0.0271,0.0395,0.0398,0.0402,0.0404,0.0385,0.0385,0.0384,0.0384,0.0384,0,-0.0703,-0.0732,-0.0738,-0.0762,-0.0799,-0.0756,-0.0764,-0.0718,-0.0649,-0.0621,-0.0486,-0.0424,-0.0222,-0.0078,0.0062,0.0265,0.0258,0.0397,0.0437,0.0381,0.0379,0.0358,0.0353,0.0389,0.0388,0.0387,0.0386,0,-0.0769,-0.0773,-0.0822,-0.0831,-0.0836,-0.0862,-0.0847,-0.0845,-0.0765,-0.0721,-0.0691,-0.0509,-0.0311,-0.0103,0.0132,0.0257,0.0442,0.0512,0.043,0.0458,0.0538,0.0529,0.0658,0.0661,0.0663,0.0665,0.0666,0,-0.0807,-0.0842,-0.0887,-0.0924,-0.0933,-0.0958,-0.0974,-0.0915,-0.0902,-0.0769,-0.0749,-0.0545,-0.0385,-0.0017,0.0239,0.0508,0.0507,0.0613,0.0592,0.0544,0.0569,0.0557,0.0545,0.0572,0.0573,0.0573,0.0574,0,-0.0877,-0.0892,-0.0934,-0.1016,-0.1055,-0.109,-0.1098,-0.1106,-0.102,-0.0954,-0.0822,-0.0679,-0.0308,-0.0006,0.0352,0.05,0.0567,0.0632,0.0621,0.0509,0.0472,0.0494,0.0484,0.0578,0.0578,0.0577,0.0577,0.0577,-0.092,-0.0972,-0.1031,-0.1103,-0.1156,-0.1202,-0.1227,-0.1202,-0.1169,-0.1043,-0.0898,-0.0658,-0.0345,0.0161,0.0415,0.065,0.0649,0.0698,0.0692,0.0687,0.0655,0.0624,0.0751,0.0752,0.0752,0.0752,0.0753,0,-0.0972,-0.103,-0.1112,-0.1194,-0.1265,-0.1268,-0.1295,-0.1281,-0.1236,-0.1078,-0.0916,-0.0572,-0.0211,0.0115,0.0489,0.0719,0.0692,0.0748,0.066,0.0655,0.0651,0.0613,0.0701,0.0701,0.0702,0.0702,0,0,-0.1,-0.109,-0.1137,-0.1265,-0.1322,-0.1383,-0.1398,-0.1344,-0.1236,-0.1073,-0.0887,-0.062,-0.0216,0.0035,0.0327,0.0522,0.0525,0.0537,0.0554,0.041,0.0403,0.0598,0.0532,0,0,0,0,0]}],[{"header":{"parameterUnit":"m.s-1","parameterCategory":2,"la1":30.2991,"la2":30.254,"lo1":-89.0895,"lo2":-89.0444,"dy":0.0017,"dx":0.0017,"nx":28,"ny":28,"refTime":"2024-12-14T03:00:00:Z","depth":"4","parameterNumber":2,"parameterNumberName":"U-component_of_CURRENTS"},"data":[0,0,0,0,0,0,0,0,0,0,0,0,0,0,0,0,0,0,0,0,0,0,0,0,0,0,0,0,0,0,0,0,0,0,0,0,0,0,0,0,0,0,0,0,0,0,0,0,0,0,0,0,0,0,0,0,0,0,-0.1669,-0.167,0,-0.1738,-0.1738,-0.1739,-0.1776,-0.1777,-0.1777,-0.1777,-0.1825,-0.1826,-0.1826,0,0,0,0,0,0,0,0,0,0,0,0,0,-0.1563,-0.1565,-0.1669,-0.167,-0.1671,-0.1737,-0.1738,-0.1739,-0.1776,-0.1777,-0.1777,-0.1777,-0.1824,-0.1825,-0.1827,0,0,0,0,0,0,0,0,0,0,0,0,0,-0.1616,-0.1565,-0.1669,-0.1699,-0.1703,-0.1737,-0.1738,-0.1739,-0.1776,-0.1777,-0.1777,-0.1778,-0.1824,-0.1825,-0.1827,-0.1827,0,0,-0.1831,-0.1832,0,0,0,0,0,0,0,0,-0.1613,-0.162,-0.1694,-0.1697,-0.1701,-0.1751,-0.1718,-0.1768,-0.1776,-0.1746,-0.1777,-0.1778,-0.1799,-0.1803,-0.1812,-0.1829,-0.1831,-0.1831,-0.1832,-0.1833,-0.1833,0,0,0,0,0,0,0,-0.1609,-0.1617,-0.1694,-0.1695,-0.17,-0.1707,-0.1715,-0.1728,-0.1767,-0.1749,-0.1752,-0.1763,-0.1801,-0.181,-0.1813,-0.1832,-0.1831,-0.1833,-0.1834,-0.1834,-0.1928,-0.193,0,0,0,0,0,0,-0.1605,-0.1613,-0.1692,-0.1696,-0.166,-0.1709,-0.1718,-0.1733,-0.1768,-0.1774,-0.1763,-0.1765,-0.1807,-0.1811,-0.1815,-0.189,-0.1833,-0.1834,-0.1835,-0.1927,-0.1929,-0.193,0,0,0,0,0,0,-0.1603,-0.1612,-0.1689,-0.1658,-0.1668,-0.1711,-0.1727,-0.1734,-0.1772,-0.1779,-0.1785,-0.1797,-0.1808,-0.1813,-0.1856,-0.1889,-0.1835,-0.1836,-0.1925,-0.1927,-0.1929,-0.1994,0,0,0,0,0,0,-0.16,-0.161,-0.1632,-0.1658,-0.167,-0.1732,-0.1727,-0.1735,-0.1777,-0.1781,-0.1809,-0.1813,-0.1809,-0.1854,-0.1858,-0.189,-0.1837,-0.1923,-0.1926,-0.1929,-0.1989,-0.1998,-0.2005,0,0,0,0,0,-0.1596,-0.1621,-0.1633,-0.1643,-0.1695,-0.1733,-0.1741,-0.177,-0.1778,-0.1804,-0.1825,-0.1813,-0.1876,-0.1857,-0.1861,-0.1894,-0.1921,-0.1925,-0.1928,-0.1986,-0.1996,-0.2005,0,0,0,0,0,0,-0.1588,-0.1628,-0.1642,-0.1679,-0.1715,-0.1741,-0.177,-0.1787,-0.1823,-0.1834,-0.1835,-0.184,-0.189,-0.1885,-0.1864,-0.1931,-0.1896,-0.1901,-0.1939,-0.1948,-0.1956,-0.1952,-0.1839,0,0,0,0,0,-0.1596,-0.1626,-0.1663,-0.1696,-0.1716,-0.1747,-0.1771,-0.1793,-0.1823,-0.1841,-0.1862,-0.1883,-0.1903,-0.1921,-0.1937,-0.1975,-0.1959,-0.1999,-0.2007,-0.2014,-0.2014,-0.2021,-0.203,-0.1942,-0.1942,-0.1942,0,0,-0.1602,-0.1629,-0.1648,-0.1697,-0.1725,-0.1763,-0.1764,-0.1811,-0.1848,-0.1839,-0.1902,-0.1913,-0.1919,-0.1963,-0.1985,-0.1967,-0.2032,-0.2018,-0.2024,-0.202,-0.2026,-0.2034,-0.2042,-0.1945,-0.1944,-0.1944,0,0,-0.1621,-0.1656,-0.1686,-0.172,-0.1772,-0.1794,-0.1814,-0.1861,-0.1891,-0.1946,-0.1948,-0.1982,-0.2019,-0.2031,-0.2038,-0.2099,-0.2073,-0.2108,-0.2148,-0.2156,-0.2163,-0.2168,-0.2163,-0.2168,-0.2113,-0.2114,-0.2114,0,-0.163,-0.1671,-0.1702,-0.174,-0.1774,-0.1811,-0.1852,-0.1888,-0.1946,-0.1972,-0.1977,-0.204,-0.2049,-0.2091,-0.2114,-0.2117,-0.2111,-0.2111,-0.2165,-0.217,-0.2175,-0.2168,-0.2173,-0.2117,-0.2117,-0.2116,-0.2116,0,-0.1661,-0.1709,-0.1732,-0.1791,-0.1831,-0.1876,-0.1926,-0.1975,-0.2013,-0.2042,-0.2106,-0.2122,-0.2154,-0.2168,-0.2161,-0.2206,-0.2187,-0.2172,-0.2138,-0.2188,-0.2177,-0.2181,-0.2122,-0.2121,-0.212,-0.2119,0,0,-0.1638,-0.1735,-0.1746,-0.1784,-0.1865,-0.1895,-0.1968,-0.2032,-0.2076,-0.2134,-0.2182,-0.2228,-0.2236,-0.2244,-0.2246,-0.2258,-0.229,-0.2235,-0.2234,-0.2224,-0.2301,-0.215,-0.2138,-0.2285,-0.2286,-0.2287,-0.2281,0,-0.1655,-0.1728,-0.1778,-0.1855,-0.1895,-0.196,-0.202,-0.2084,-0.2137,-0.2193,-0.2224,-0.2269,-0.2265,-0.2284,-0.2299,-0.2291,-0.2302,-0.2292,-0.2259,-0.2257,-0.2112,-0.2138,-0.229,-0.2283,-0.2284,-0.2284,-0.2284,0,-0.166,-0.1712,-0.1789,-0.1886,-0.1911,-0.1967,-0.2062,-0.212,-0.2203,-0.2243,-0.2295,-0.2316,-0.2357,-0.2338,-0.2356,-0.2351,-0.2334,-0.2322,-0.2321,-0.2156,-0.2111,-0.2222,-0.229,-0.229,-0.2289,-0.2289,-0.2288,0,-0.1606,-0.1715,-0.1777,-0.1812,-0.1927,-0.1981,-0.2043,-0.2136,-0.2185,-0.2273,-0.2309,-0.2361,-0.2384,-0.2385,-0.2368,-0.2368,-0.2366,-0.2359,-0.2207,-0.2197,-0.2307,-0.2301,-0.2364,-0.2364,-0.2364,-0.2364,-0.2364,0,-0.1585,-0.1637,-0.1763,-0.1794,-0.1867,-0.1959,-0.204,-0.2108,-0.2202,-0.224,-0.2326,-0.2345,-0.2397,-0.2401,-0.2381,-0.2292,-0.2376,-0.2209,-0.2182,-0.2335,-0.2333,-0.2309,-0.2303,-0.2364,-0.2364,-0.2364,-0.2364,0,-0.1508,-0.1598,-0.1669,-0.18,-0.1844,-0.1892,-0.2026,-0.2067,-0.2178,-0.2229,-0.2257,-0.2342,-0.234,-0.2366,-0.2359,-0.2285,-0.2232,-0.218,-0.2339,-0.2323,-0.2058,-0.2056,-0.2011,-0.2005,-0.2001,-0.1997,-0.1994,0,-0.1473,-0.1505,-0.1646,-0.1684,-0.1749,-0.1842,-0.1894,-0.203,-0.2066,-0.2195,-0.2189,-0.2249,-0.228,-0.2146,-0.2196,-0.2146,-0.212,-0.2082,-0.2073,-0.2042,-0.2021,-0.2026,-0.203,-0.1986,-0.1985,-0.1984,-0.1983,0,-0.139,-0.1454,-0.1509,-0.1587,-0.1655,-0.1722,-0.1808,-0.1822,-0.1955,-0.2081,-0.2058,-0.2053,-0.2047,-0.2033,-0.2006,-0.1972,-0.2101,-0.2033,-0.2043,-0.2034,-0.2012,-0.1997,-0.2006,-0.1967,-0.1969,-0.197,-0.1971,0,-0.132,-0.1333,-0.1409,-0.1461,-0.1539,-0.156,-0.1636,-0.1671,-0.1728,-0.1874,-0.1856,-0.1924,-0.2012,-0.1942,-0.1916,-0.1871,-0.1847,-0.1783,-0.1805,-0.1823,-0.1764,-0.1709,-0.154,0,0,0,0,0,-0.1237,-0.1233,-0.1273,-0.132,-0.1389,-0.1433,-0.1548,-0.1628,-0.176,-0.1688,-0.1769,-0.1753,-0.1725,-0.1765,-0.1677,-0.1837,-0.1857,-0.1729,-0.1796,-0.1878,-0.1896,-0.1844,0,0,0,0,0,0,-0.1182,-0.1211,-0.1221,-0.1181,-0.1183,-0.1243,-0.1309,-0.1411,-0.1387,-0.1529,-0.1518,-0.163,-0.1626,-0.1733,-0.1631,-0.1644,-0.1647,-0.1784,-0.1779,-0.1867,-0.1884,-0.1899,-0.1852,0,0,0,0,0]},{"header":{"parameterUnit":"m.s-1","parameterCategory":2,"la1":30.2991,"la2":30.254,"lo1":-89.0895,"lo2":-89.0444,"dy":0.0017,"dx":0.0017,"nx":28,"ny":28,"refTime":"2024-12-14T03:00:00:Z","depth":"4","parameterNumber":3,"parameterNumberName":"V-component_of_CURRENTS"},"data":[0,0,0,0,0,0,0,0,0,0,0,0,0,0,0,0,0,0,0,0,0,0,0,0,0,0,0,0,0,0,0,0,0,0,0,0,0,0,0,0,0,0,0,0,0,0,0,0,0,0,0,0,0,0,0,0,0,0,-0.0138,-0.0137,0,-0.0077,-0.0076,-0.0075,-0.0034,-0.0033,-0.0033,-0.0033,0.0057,0.0059,0.0061,0,0,0,0,0,0,0,0,0,0,0,0,0,-0.0176,-0.0176,-0.0138,-0.0137,-0.0136,-0.0077,-0.0076,-0.0075,-0.0034,-0.0033,-0.0033,-0.0033,0.0056,0.0059,0.0062,0,0,0,0,0,0,0,0,0,0,0,0,0,-0.014,-0.0176,-0.0138,-0.011,-0.0107,-0.0077,-0.0076,-0.0074,-0.0034,-0.0033,-0.0033,-0.0033,0.0055,0.0059,0.0062,0.0078,0,0,0.0072,0.0074,0,0,0,0,0,0,0,0,-0.0143,-0.0139,-0.0114,-0.0112,-0.0108,-0.0064,-0.0056,-0.0023,-0.0034,-0.006,-0.0033,-0.0033,0.0018,0.0025,0.0037,0.0082,0.0086,0.0073,0.0075,0.0076,0.0077,0,0,0,0,0,0,0,-0.0145,-0.0141,-0.0112,-0.0114,-0.011,-0.0086,-0.0081,-0.005,-0.0021,-0.0058,-0.0055,-0.005,0.002,0.0034,0.004,0.0087,0.0072,0.0075,0.0077,0.0079,0.0158,0.0159,0,0,0,0,0,0,-0.0158,-0.0144,-0.0114,-0.011,-0.0127,-0.0085,-0.008,-0.0077,-0.0022,-0.0014,-0.0051,-0.0049,0.0028,0.0036,0.0043,0.0067,0.0076,0.0079,0.0081,0.0158,0.0158,0.0159,0,0,0,0,0,0,-0.0159,-0.0156,-0.0116,-0.0127,-0.012,-0.0086,-0.0083,-0.0076,-0.0064,-0.0017,-0.0009,-0.0046,0.0028,0.0038,0.007,0.0071,0.0081,0.0084,0.0158,0.0158,0.0159,0.0114,0,0,0,0,0,0,-0.0161,-0.0157,-0.0162,-0.0128,-0.012,-0.0106,-0.0083,-0.0075,-0.0062,-0.0059,-0.0011,-0.0002,0.0029,0.0065,0.0073,0.0076,0.0086,0.0158,0.0158,0.0158,0.0116,0.0113,0.0111,0,0,0,0,0,-0.0162,-0.0171,-0.0162,-0.0159,-0.0127,-0.0106,-0.01,-0.0073,-0.0063,-0.0061,-0.0025,-0.0003,0.0072,0.0068,0.0078,0.0081,0.0158,0.0158,0.0158,0.0117,0.0114,0.0111,0,0,0,0,0,0,-0.019,-0.0167,-0.0157,-0.0158,-0.0137,-0.01,-0.0098,-0.0079,-0.0049,-0.0047,-0.0001,0.0011,0.0038,0.0065,0.0059,0.0105,0.0118,0.012,0.0083,0.0081,0.0078,0.0062,0.0089,0,0,0,0,0,-0.02,-0.0201,-0.0172,-0.0174,-0.0167,-0.0134,-0.0123,-0.0105,-0.0074,-0.0061,-0.0026,0.0012,0.0047,0.0067,0.0099,0.0125,0.0154,0.0134,0.0131,0.0129,0.0123,0.0173,0.0174,0.0159,0.0159,0.0159,0,0,-0.0212,-0.02,-0.02,-0.0181,-0.0163,-0.0158,-0.0126,-0.0115,-0.0107,-0.0056,-0.0035,0.0003,0.0051,0.008,0.0095,0.0103,0.0148,0.0129,0.0126,0.0122,0.0173,0.0175,0.0176,0.0159,0.0159,0.0159,0,0,-0.0238,-0.0226,-0.0236,-0.0223,-0.0203,-0.018,-0.018,-0.0146,-0.0127,-0.0102,-0.0061,-0.0023,0.0025,0.0065,0.009,0.0094,0.0131,0.0102,0.0081,0.0129,0.0131,0.0132,0.0166,0.0171,0.0103,0.0103,0.0103,0,-0.0255,-0.0263,-0.0236,-0.0241,-0.0237,-0.0194,-0.0203,-0.0175,-0.0134,-0.0119,-0.0104,-0.0023,0.0019,0.0064,0.0067,0.0088,0.0115,0.0087,0.0125,0.0128,0.013,0.0165,0.0171,0.0101,0.0101,0.0101,0.0102,0,-0.0285,-0.0294,-0.0299,-0.0292,-0.0281,-0.0283,-0.0245,-0.0227,-0.02,-0.0168,-0.0123,-0.006,-0.0013,0.001,0.0041,0.008,0.0093,0.0114,0.013,0.0129,0.0165,0.0173,0.0098,0.0099,0.0099,0.01,0,0,-0.0319,-0.0322,-0.0325,-0.0337,-0.0311,-0.0309,-0.0291,-0.0263,-0.0254,-0.02,-0.0178,-0.0105,-0.0069,-0.0037,0.0013,0.006,0.0104,0.0089,0.0092,0.0117,0.0201,0.0184,0.0191,0.0132,0.0133,0.0134,0.0217,0,-0.0353,-0.0387,-0.037,-0.0397,-0.0412,-0.0371,-0.0361,-0.0328,-0.0287,-0.0252,-0.0173,-0.0134,-0.0086,-0.0063,-0.0007,0.0079,0.0122,0.0079,0.0203,0.0207,0.0188,0.0198,0.0137,0.0222,0.0224,0.0225,0.0226,0,-0.0387,-0.0408,-0.0448,-0.0461,-0.0463,-0.0469,-0.0449,-0.0432,-0.0364,-0.0331,-0.0268,-0.0204,-0.0121,-0.0085,0.0058,0.0028,0.0103,0.0171,0.0176,0.0179,0.0203,0.0227,0.024,0.0239,0.0238,0.0237,0.0236,0,-0.0434,-0.0461,-0.0501,-0.0505,-0.0507,-0.0516,-0.0511,-0.0462,-0.0452,-0.0379,-0.0358,-0.0249,-0.0194,-0.0079,0.0061,0.0061,0.0215,0.0234,0.029,0.029,0.0299,0.0297,0.0326,0.0326,0.0325,0.0325,0.0325,0,-0.0474,-0.0507,-0.0533,-0.0555,-0.0602,-0.0577,-0.0601,-0.0572,-0.053,-0.0516,-0.0408,-0.0368,-0.019,-0.0077,0.0047,0.0189,0.0206,0.0285,0.0312,0.0278,0.0272,0.0304,0.0301,0.0328,0.0328,0.0327,0.0327,0,-0.0514,-0.053,-0.0583,-0.0613,-0.0628,-0.0661,-0.0677,-0.0685,-0.0633,-0.0609,-0.0588,-0.0451,-0.0299,-0.0123,0.0073,0.0161,0.0304,0.0348,0.0289,0.0312,0.0348,0.0341,0.0415,0.0415,0.0415,0.0416,0.0416,0,-0.0535,-0.0568,-0.0637,-0.068,-0.0701,-0.0744,-0.0771,-0.0743,-0.0741,-0.0659,-0.0647,-0.0501,-0.0391,-0.0128,0.0052,0.0286,0.0316,0.0379,0.0372,0.0339,0.0359,0.0352,0.0345,0.0416,0.0416,0.0416,0.0416,0,-0.0575,-0.0605,-0.0651,-0.0744,-0.0797,-0.0846,-0.0876,-0.0882,-0.0832,-0.0793,-0.0684,-0.053,-0.0358,-0.014,0.0044,0.021,0.0335,0.0381,0.0382,0.0376,0.0341,0.0359,0.0352,0.0416,0.0416,0.0416,0.0416,0,-0.0603,-0.065,-0.0718,-0.0793,-0.087,-0.092,-0.0931,-0.0911,-0.0896,-0.079,-0.076,-0.0553,-0.0428,-0.018,-0.0013,0.0153,0.0192,0.0233,0.0242,0.0244,0.0171,0.01,0.0124,0,0,0,0,0,-0.0622,-0.0678,-0.076,-0.0842,-0.0919,-0.0955,-0.0985,-0.0976,-0.093,-0.0863,-0.0804,-0.0636,-0.0364,-0.0244,-0.0081,-0.0022,0.0208,0.0171,0.0257,0.0418,0.0418,0.036,0,0,0,0,0,0,-0.0637,-0.0717,-0.0761,-0.0863,-0.0923,-0.0995,-0.1014,-0.0984,-0.0931,-0.0863,-0.0716,-0.0617,-0.0352,-0.0456,-0.0084,-0.0032,0.0038,0.0308,0.0311,0.0419,0.0418,0.0418,0.0358,0,0,0,0,0]}]]